User: anonymous   Login
Location: Caltech
(34.1382°N, 118.1253°W)
Time: 09:17:57
(UTC-07:00)
Language:

NOAA 19 - Orbit

View from above orbital plane
View from above orbital plane
View from above satellite
View from above satellite

Ground track
Ground track

The orbit data is extracted from the following two-line orbital elements,

1 33591U 09005A   15125.50614419  .00000194  00000-0  13061-3 0  9997
2 33591 098.9866 075.2906 0013041 292.8930 067.0864 14.11924527321463
Epoch (UTC): 05 May 2015 12:08:50
Eccentricity: 0.0013041
inclination: 98.9866°
perigee height: 843 km
apogee height: 862 km
right ascension of ascending node: 75.2906°
argument of perigee: 292.8930°
revolutions per day: 14.11924527
mean anomaly at epoch: 67.0864°
orbit number at epoch: 32146

The dashed part of the orbit path shows where the satellite is in the earth's shadow,  

DLR